Regional Weather Roundup
Issued by NWS

Home | Current Version | Previous Version | Graphics & Text | Print | Product List | Glossary On
Versions: 1 2 3 4 5 6 7 8 9 10 11 12 13 14 15 16 17 18 19 20 21 22 23 24 25 26 27 28 29 30 31 32 33 34 35 36 37 38 39 40 41 42 43 44 45 46 47 48 49 50
000
ASUS43 KMKX 230928
RWRWI

WISCONSIN REGIONAL WEATHER ROUNDUP
NATIONAL WEATHER SERVICE MILWAUKEE/SULLIVAN WI
400 AM CDT SAT MAY 23 2015

NOTE: "FAIR" INDICATES FEW OR NO CLOUDS BELOW 12,000 FEET WITH NO
SIGNIFICANT WEATHER AND/OR OBSTRUCTIONS TO VISIBILITY.

WIZ001-002-006>008-014>016-023>028-231000-
NORTHWEST WISCONSIN

CITY           SKY/WX    TMP DP  RH WIND       PRES   REMARKS
SUPERIOR ARPT  CLEAR     38  35  90 SW5       30.20R WCI  34
ASHLAND        CLEAR     50  37  61 SW7       30.20R
HAYWARD        CLEAR     38  35  89 CALM      30.23R
SIREN          CLEAR     43  39  86 CALM      30.22S
CUMBERLAND     CLEAR     43  39  87 CALM      30.24R
RICE LAKE      CLEAR     42  40  94 CALM      30.25S
CHETEK         CLEAR     40  40  98 E6        30.24S
LADYSMITH      CLEAR     41  39  93 CALM      30.27R
EAU CLAIRE     CLEAR     43  39  86 CALM      30.23S
MENOMONIE      CLEAR     47  43  88 CALM      30.24S
NEW RICHMOND   CLEAR     45  39  79 CALM      30.23R
OSCEOLA        CLEAR     42  42 100 CALM      30.25R
$$

WIZ003>005-009-010-017-018-231000-
NORTH CENTRAL WISCONSIN

CITY           SKY/WX    TMP DP  RH WIND       PRES   REMARKS
MANITOWISH WTR CLEAR     36  35  97 CALM      30.23S
ARBOR VITAE    CLEAR     41  36  83 CALM      30.24R
WOODRUFF       CLEAR     41  36  83 CALM      30.24R
RHINELANDER    CLEAR     34  30  85 CALM      30.26R
EAGLE RIVER    CLEAR     35  33  92 CALM      30.24R
LAND O LAKES   CLEAR     32  32 100 CALM      30.24S
PHILLIPS       CLEAR     37  35  93 CALM      30.24S
TOMAHAWK       CLEAR     35  34  95 CALM      30.26R
MEDFORD        CLEAR     38  37  94 CALM      30.25S
MERRILL        CLEAR    N/A N/A N/A CALM      30.27S
$$

WIZ029-030-035-036-043>047-231000-
CENTRAL WISCONSIN

CITY           SKY/WX    TMP DP  RH WIND       PRES   REMARKS
WAUSAU         CLEAR     43  39  86 E5        30.25S
MOSINEE        CLEAR     45  39  81 CALM      30.27S
MARSHFIELD     CLEAR     47  38  71 CALM      30.26R
STEVENS POINT  CLEAR     40  34  79 CALM      30.28R
WAUPACA        CLEAR     44  37  77 CALM      30.28S
WAUTOMA        CLEAR     39  38  97 CALM      30.29R
WISC RAPIDS    CLEAR     47  34  60 S5        30.28R
CAMP DOUGLAS   CLEAR     37  37 100 E3        30.25S FOG
$$

WIZ011>013-019>022-031-037>040-048>050-231000-
NORTHEAST WISCONSIN

CITY           SKY/WX    TMP DP  RH WIND       PRES   REMARKS
ANTIGO         CLEAR     39  35  87 CALM      30.27S
SHAWANO        CLEAR     44  35  69 CALM      30.28S
OCONTO         CLEAR     34  33  98 CALM      30.27S
STURGEON BAY   CLEAR     45  25  45 S6        30.30S
GREEN BAY      CLEAR     41  34  76 W3        30.28R
MANITOWOC      CLEAR     45  31  58 CALM      30.29R
APPLETON       CLEAR     45  30  57 SW6       30.29R
CLINTONVILLE   CLEAR     39  34  81 CALM      30.28R
OSHKOSH        CLEAR     46  29  51 CALM      30.28R
$$

WIZ032>034-041-042-053>061-231000-
SOUTHWEST WISCONSIN

CITY           SKY/WX    TMP DP  RH WIND       PRES   REMARKS
LA CROSSE      FAIR      50  43  77 E9        30.24R
SPARTA         CLEAR     37  36  96 CALM      30.27R
VIROQUA        FAIR      50  41  72 SE7       30.26R
BOSCOBEL       PTCLDY    46  43  89 CALM      30.27R
PRAIRIE DU CHI PTCLDY    51  45  80 E3        30.26R
PLATTEVILLE    CLOUDY    50  39  66 E8        30.27R
$$

WIZ056-057-062-063-064-067-068-231000-
SOUTH CENTRAL WISCONSIN

CITY           SKY/WX    TMP DP  RH WIND       PRES   REMARKS
REEDSBURG      CLEAR     49  37  61 CALM      30.27S
BARABOO/DELLS  CLEAR     49  32  52 S7        30.27S
LONE ROCK      CLEAR     51  38  60 E3        30.28R
MINERAL POINT  CLEAR     50  34  53 SE7       30.27S
MADISON        CLEAR     51  32  48 S5        30.28S
MIDDLETON      CLEAR     53  28  38 S5        30.29R
WATERTOWN      CLEAR     40  34  77 CALM      30.29S
MONROE         CLEAR     48  34  57 SE8       30.28R
JANESVILLE     CLEAR     45  32  61 CALM      30.29R
$$

WIZ051-052-058>065-066-070>072-231000-
SOUTHEAST WISCONSIN

CITY           SKY/WX    TMP DP  RH WIND       PRES   REMARKS
MILWAUKEE      PTCLDY    49  29  46 S6        30.30R
WAUKESHA       CLEAR     45  30  57 CALM      30.31R
MILWAUKEE/TIMM FAIR      43  32  65 CALM      30.31R
RACINE         CLEAR     45  32  60 SW3       30.31S
BURLINGTON     CLEAR     39  35  84 CALM      30.30S
KENOSHA        CLEAR     43  34  70 S3        30.30R
FOND DU LAC    CLEAR     47  30  51 SW7       30.29R
SHEBOYGAN      CLEAR     41  29  62 S5        30.29R
WEST BEND      FAIR      46  28  49 CALM      30.29S
JUNEAU         CLEAR     45  30  56 CALM      30.30S
$$

LSZ147-162-231000-
LAKE SUPERIOR

STATION/POSITION TIME  TEMP    WIND        PRES    WAVE
                       AIR SEA DIR/SP/G            HT/PER
                 (UTC) (F)     (DEG/KT/KT) (MB)    (FT/S)
W MID LAKE BUOY  0850   40 36  240/ 10/ 12   N/A     0
DEVILS ISLAND    0900   44     240/ 13/ 15   N/A
PORT WING        0840   43      CALM  /  4   N/A
SAXON HARBOR     0800   52     190/  3/  6   N/A
$$

LMZ867-665-643>646-231000-
LAKE MICHIGAN

STATION/POSITION TIME  TEMP    WIND        PRES    WAVE
                       AIR SEA DIR/SP/G            HT/PER
                 (UTC) (F)     (DEG/KT/KT) (MB)    (FT/S)
CHAMBERS ISLAND  0800   49     180/  5/ 11   N/A
N MID LAKE BUOY  0850   40 36  200/  6/  8   N/A     0
NORTHPORT PIER   0800   47     170/  3/  8   N/A
SISTER BAY       0802   45     160/  6/  8   N/A
KEWAUNEE LAKESHO 0800   42      CALM  /  1   N/A
SHEBOYGAN LAKESH 0900   51     210/  7/  7   N/A
PORT WASHINGTON  0800   50     260/  5/  7   N/A
ATWATER BUOY     0900   50 45  160/  4/  6   N/A
MILWAUKEE LAKESH 0900   53     210/  5/  6   N/A
S MID LAKE BUOY  0850   45 38  170/  8/  8   N/A     0
KENOSHA   LAKESH 0900   51     210/  3/  3   N/A
$$

TC  - TEMPERATURE IN CELSIUS
VSB - VISIBILITY IN STATUTE MILES
WCI - WIND CHILL INDEX
HX  - HEAT INDEX




USA.gov is the U.S. government's official web portal to all federal, state and local government web resources and services.